Skip Page Navigation
NASA JPL Caltech
NASA Logo - Jet Propulsion Laboratory + View the NASA Portal
+ Center for Near-Earth Object Studies
JPL Home Earth Solar System Stars & Galaxies Technology
JPL Solar System Dynamics
BODIES ORBITS EPHEMERIDES TOOLS PHYSICAL DATA DISCOVERY FAQ SITE MAP
IMPORTANT: The SSD Announcement email list is now available. Major changes are coming in the near future, including possible hostname and/or URL changes. To be notified of such changes, subscribe to this email list.

Please visit this page for more details.


JPL Small-Body Database Browser
Search: [ help ]  
173639 (2001 FH133)
Classification: Main-belt Asteroid          SPK-ID: 2173639
Ephemeris | Orbit Diagram | Orbital Elements | Mission Design | Physical Parameters | Discovery Circumstances ]

[ show orbit diagram ]
Orbital Elements at Epoch 2458600.5 (2019-Apr-27.0) TDB
Reference: JPL 17 (heliocentric ecliptic J2000)
 Element Value Uncertainty (1-sigma)   Units 
e .1159691973496614 5.0276e-08  
a 2.399342041996572 1.5495e-08 au
q 2.121092271218932 1.1926e-07 au
i 3.867920503224354 4.6688e-06 deg
node 67.59504014631345 7.9983e-05 deg
peri 159.2978328659478 8.2345e-05 deg
M 286.8975001739285 2.0294e-05 deg
tp 2458876.155333871650
(2020-Jan-27.65533387)
7.7164e-05 TDB
period 1357.490105398585
3.72
1.315e-05
3.6e-08
d
yr
n .265195303132097 2.569e-09 deg/d
Q 2.677591812774212 1.7292e-08 au
  Orbit Determination Parameters
   # obs. used (total)      423  
   data-arc span      6521 days (17.85 yr)  
   first obs. used      2001-03-20  
   last obs. used      2019-01-26  
   planetary ephem.      DE431  
   SB-pert. ephem.      SB431-N16  
   condition code      0  
   norm. resid. RMS      .61523  
   source      ORB  
   producer      Otto Matic  
   solution date      2019-Jul-13 09:37:48  

Additional Information
 Earth MOID = 1.11174 au 
 Jupiter MOID = 2.30255 au 
 T_jup = 3.515 
[ show covariance matrix ]

Ephemeris | Orbit Diagram | Orbital Elements | Mission Design | Physical Parameters | Discovery Circumstances ]

Physical Parameter Table
Parameter Symbol Value Units Sigma Reference Notes
absolute magnitude H 16.4   n/a MPO433115  

173639 (2001 FH133)          Discovered 2001-Mar-20 by NEAT at Haleakala
Reference: 20080122/Numbers.arcLast Updated: 2008-01-28
Ephemeris | Orbit Diagram | Orbital Elements | Mission Design | Physical Parameters | Discovery Circumstances ]
ABOUT SSD CREDITS/AWARDS PRIVACY/COPYRIGHT GLOSSARY LINKS
FirstGov 2019-Dec-06 18:47 UT
(server date/time)  
NASA Home Page
Site Manager:   Ryan S. Park
Webmaster  Alan B. Chamberlin